Location: ????????
(55.1591°N, 39.1782°E)
Time: 07:06:35
(UTC+00:00)

Cosmos 1092 Rocket - Visible Passes

Search period start: 16 July 2024 00:00
Search period end: 26 July 2024 00:00
Orbit: 953 x 995 km, 83.0° (Epoch: 15 July)

Date Brightness Start Highest point End Pass type
(mag) Time Alt. Az. Time Alt. Az. Time Alt. Az.
16 Jul 6.7 22:02:52 10° NNE 22:05:33 13° NE 22:08:13 10° ENE visible
16 Jul 5.1 23:46:45 10° N 23:52:41 47° ENE 23:58:34 10° SE visible
17 Jul 6.4 22:27:04 10° N 22:31:18 19° NE 22:35:30 10° E visible
18 Jul 4.3 00:11:42 10° N 00:17:52 72° ENE 00:24:00 10° SSE visible
18 Jul 5.9 22:51:41 10° N 22:56:52 27° ENE 23:02:02 10° ESE visible
19 Jul 6.7 21:33:05 10° NNE 21:34:58 11° NE 21:36:51 10° ENE visible
19 Jul 5.2 23:16:28 10° N 23:22:17 41° ENE 23:28:02 10° SE visible
20 Jul 6.4 21:56:56 10° NNE 22:00:47 17° NE 22:04:36 10° E visible
20 Jul 4.5 23:41:23 10° N 23:47:31 63° ENE 23:53:36 10° SSE visible
21 Jul 6.0 22:21:27 10° N 22:26:24 24° ENE 22:31:20 10° ESE visible
22 Jul 4.0 00:06:25 10° NNW 00:12:36 84° W 00:18:44 10° S visible
22 Jul 6.9 21:04:13 10° NE 21:04:23 10° NE 21:04:33 10° NE visible
22 Jul 5.4 22:46:13 10° N 22:51:52 36° ENE 22:57:28 10° SE visible
23 Jul 6.4 21:26:52 10° NNE 21:30:14 15° NE 21:33:37 10° E visible
23 Jul 4.6 23:11:06 10° N 23:17:09 55° ENE 23:23:09 10° SSE visible
24 Jul 6.1 21:51:15 10° N 21:55:55 22° NE 22:00:34 10° ESE visible
24 Jul 4.0 23:36:04 10° N 23:42:16 85° E 23:48:26 10° SSE visible
25 Jul 5.5 22:15:57 10° N 22:21:25 32° ENE 22:26:52 10° SE visible
